カタログに戻る

FUSE 1

運用中科学LEO
NORAD 25791·PAYLOAD·🇺🇸 United States

打ち上げ Jun 24, 1999 から Cape Canaveral Space Force Station

Loading…

次のパス (今後24時間)

TLE

最新Source: Space-Track

元期: Sep 14, 2026, 11:04 UTC

1 25791U 99035A   26257.46111154  .00000385  00000-0  57879-4 0  9991
2 25791  24.9834 177.0264 0009896 309.9884  49.9755 14.44511928436883

AllMySatでFUSE 1をリアルタイム追跡

Download on the App Store